Location: Baller�as
(41.9020°N, 0.1554°W)
Time: 10:11:42
(UTC+00:00)

Meteor 1-19 Rocket - Pass Details

Date: 10 August 2020
Orbit: 811 x 924 km, 81.2° (Epoch: 21 September)

Event Time Altitude Azimuth Distance (km) Brightness Sun altitude
Rises 22:02:30 0° 346° (NNW) 3,342 8.4 -26.2°
Reaches altitude 10° 22:04:55 10° 343° (NNW) 2,407 7.5 -26.4°
Maximum altitude 22:10:14 60° 265° (W) 935 4.4 -27.0°
Enters shadow 22:10:54 55° 233° (SW) 975 4.4 -27.0°
